Time,TemperatureF,DewpointF,PressureIn,WindDirection,WindDirectionDegrees,WindSpeedMPH,WindSpeedGustMPH,Humidity,HourlyPrecipIn,Conditions,Clouds,dailyrainin,SoftwareType,DateUTC
2013-02-05 00:02:00,38.0,28.0,30.02,SW,218,4.0,5.0,67,0.00,,,0.00,,2013-02-05 05:02:00,
2013-02-05 00:12:00,38.0,28.0,30.02,SW,218,4.0,5.0,67,0.00,,,0.00,,2013-02-05 05:12:00,
2013-02-05 00:22:00,38.0,29.0,30.01,SSW,208,4.0,6.0,69,0.00,,,0.00,,2013-02-05 05:22:00,
2013-02-05 00:32:00,38.0,29.0,30.01,SSW,203,3.0,5.0,69,0.00,,,0.00,,2013-02-05 05:32:00,
2013-02-05 00:42:00,38.0,29.0,30.01,SSW,203,3.0,5.0,69,0.00,,,0.00,,2013-02-05 05:42:00,
2013-02-05 00:52:00,38.0,29.0,30.00,SSW,207,4.0,7.0,69,0.00,,,0.00,,2013-02-05 05:52:00,
2013-02-05 01:02:00,39.0,30.0,29.99,SSW,193,4.0,5.0,70,0.00,,,0.00,,2013-02-05 06:02:00,
2013-02-05 01:11:00,39.0,30.0,29.99,SSW,193,4.0,5.0,70,0.00,,,0.00,,2013-02-05 06:11:00,
2013-02-05 01:22:00,39.0,30.0,29.99,SSW,200,2.0,4.0,70,0.00,,,0.00,,2013-02-05 06:22:00,
2013-02-05 01:32:00,39.0,30.0,29.98,SW,214,2.0,5.0,71,0.00,,,0.00,,2013-02-05 06:32:00,
2013-02-05 01:42:00,39.0,30.0,29.98,SW,214,2.0,5.0,71,0.00,,,0.00,,2013-02-05 06:42:00,
2013-02-05 01:52:00,39.0,31.0,29.98,SSW,208,4.0,5.0,72,0.00,,,0.00,,2013-02-05 06:52:00,
2013-02-05 02:01:00,39.0,31.0,29.98,SSW,213,5.0,8.0,72,0.00,,,0.00,,2013-02-05 07:01:00,
2013-02-05 02:11:00,39.0,31.0,29.98,SSW,213,5.0,8.0,72,0.00,,,0.00,,2013-02-05 07:11:00,
2013-02-05 02:22:00,39.0,31.0,29.97,SSW,206,5.0,8.0,72,0.00,,,0.00,,2013-02-05 07:22:00,
2013-02-05 02:32:00,39.0,31.0,29.96,South,187,5.0,8.0,72,0.00,,,0.00,,2013-02-05 07:32:00,
2013-02-05 02:42:00,39.0,31.0,29.96,South,187,5.0,8.0,72,0.00,,,0.00,,2013-02-05 07:42:00,
2013-02-05 02:52:00,39.0,31.0,29.96,SW,218,5.0,8.0,73,0.00,,,0.00,,2013-02-05 07:52:00,
2013-02-05 03:01:00,39.0,31.0,29.96,SW,218,5.0,8.0,73,0.00,,,0.00,,2013-02-05 08:01:00,
2013-02-05 03:11:00,39.0,31.0,29.96,SW,218,5.0,8.0,73,0.00,,,0.00,,2013-02-05 08:11:00,
2013-02-05 03:21:00,39.0,31.0,29.95,SSW,203,5.0,6.0,74,0.00,,,0.00,,2013-02-05 08:21:00,
2013-02-05 03:31:00,39.0,31.0,29.94,SSW,206,4.0,6.0,74,0.00,,,0.00,,2013-02-05 08:31:00,
2013-02-05 03:42:00,39.0,31.0,29.94,SSW,206,4.0,6.0,74,0.00,,,0.00,,2013-02-05 08:42:00,
2013-02-05 03:52:00,39.0,32.0,29.95,SSW,208,1.0,3.0,75,0.00,,,0.00,,2013-02-05 08:52:00,
2013-02-05 04:02:00,39.0,32.0,29.95,SW,235,1.0,3.0,76,0.00,,,0.00,,2013-02-05 09:02:00,
2013-02-05 04:11:00,39.0,33.0,29.95,SW,214,1.0,2.0,78,0.00,,,0.00,,2013-02-05 09:11:00,
2013-02-05 04:22:00,39.0,33.0,29.95,SW,214,1.0,2.0,78,0.00,,,0.00,,2013-02-05 09:22:00,
2013-02-05 04:32:00,38.0,32.0,29.94,SSW,205,1.0,2.0,78,0.00,,,0.00,,2013-02-05 09:32:00,
2013-02-05 04:42:00,38.0,32.0,29.94,SSW,205,1.0,2.0,78,0.00,,,0.00,,2013-02-05 09:42:00,
2013-02-05 04:52:00,38.0,32.0,29.94,SSW,205,0.0,1.0,78,0.00,,,0.00,,2013-02-05 09:52:00,
2013-02-05 05:02:00,38.0,32.0,29.95,SSW,205,0.0,0.0,79,0.00,,,0.00,,2013-02-05 10:02:00,
2013-02-05 05:11:00,38.0,32.0,29.95,SSW,205,1.0,1.0,80,0.00,,,0.00,,2013-02-05 10:11:00,
2013-02-05 05:21:00,38.0,32.0,29.95,SSW,205,1.0,1.0,80,0.00,,,0.00,,2013-02-05 10:21:00,
2013-02-05 05:32:00,38.0,32.0,29.94,SSW,208,2.0,4.0,80,0.00,,,0.00,,2013-02-05 10:32:00,
2013-02-05 05:42:00,38.0,32.0,29.94,SSW,208,2.0,4.0,80,0.00,,,0.00,,2013-02-05 10:42:00,
2013-02-05 05:52:00,38.0,32.0,29.93,SSW,205,2.0,4.0,80,0.00,,,0.00,,2013-02-05 10:52:00,
2013-02-05 06:01:00,37.0,32.0,29.95,WSW,250,0.0,1.0,81,0.00,,,0.00,,2013-02-05 11:01:00,
2013-02-05 06:11:00,37.0,32.0,29.95,WSW,250,0.0,1.0,81,0.00,,,0.00,,2013-02-05 11:11:00,
2013-02-05 06:22:00,36.0,32.0,29.95,WSW,252,0.0,0.0,84,0.00,,,0.00,,2013-02-05 11:22:00,
2013-02-05 06:32:00,36.0,31.0,29.95,SSW,205,1.0,2.0,83,0.00,,,0.00,,2013-02-05 11:32:00,
2013-02-05 06:42:00,36.0,31.0,29.95,SSW,205,1.0,2.0,83,0.00,,,0.00,,2013-02-05 11:42:00,
2013-02-05 06:52:00,37.0,33.0,29.96,SW,224,1.0,2.0,85,0.00,,,0.00,,2013-02-05 11:52:00,
2013-02-05 07:02:00,37.0,33.0,29.97,SW,231,2.0,3.0,84,0.00,,,0.00,,2013-02-05 12:02:00,
2013-02-05 07:12:00,37.0,33.0,29.97,SW,231,2.0,3.0,84,0.00,,,0.00,,2013-02-05 12:12:00,
2013-02-05 07:22:00,37.0,32.0,29.97,SW,224,1.0,2.0,83,0.00,,,0.00,,2013-02-05 12:22:00,
2013-02-05 07:32:00,37.0,33.0,29.97,SSW,200,2.0,3.0,84,0.00,,,0.00,,2013-02-05 12:32:00,
2013-02-05 07:42:00,37.0,33.0,29.97,SSW,200,2.0,3.0,84,0.00,,,0.00,,2013-02-05 12:42:00,
2013-02-05 07:52:00,38.0,33.0,29.97,SSW,192,3.0,5.0,82,0.00,,,0.00,,2013-02-05 12:52:00,
2013-02-05 08:02:00,39.0,34.0,29.97,SSW,212,4.0,7.0,82,0.00,,,0.00,,2013-02-05 13:02:00,
2013-02-05 08:12:00,39.0,34.0,29.97,SSW,212,4.0,7.0,82,0.00,,,0.00,,2013-02-05 13:12:00,
2013-02-05 08:22:00,40.0,34.0,29.98,SSW,210,5.0,9.0,80,0.00,,,0.00,,2013-02-05 13:22:00,
2013-02-05 08:32:00,41.0,35.0,29.98,SW,217,6.0,8.0,79,0.00,,,0.00,,2013-02-05 13:32:00,
2013-02-05 08:42:00,41.0,35.0,29.98,SW,217,6.0,8.0,79,0.00,,,0.00,,2013-02-05 13:42:00,
2013-02-05 08:52:00,43.0,36.0,29.98,SW,226,6.0,9.0,75,0.00,,,0.00,,2013-02-05 13:52:00,
2013-02-05 09:01:00,43.0,35.0,29.99,SW,224,5.0,9.0,73,0.00,,,0.00,,2013-02-05 14:01:00,
2013-02-05 09:12:00,43.0,35.0,29.99,SW,224,5.0,9.0,73,0.00,,,0.00,,2013-02-05 14:12:00,
2013-02-05 09:21:00,43.0,35.0,29.99,WSW,242,3.0,6.0,73,0.00,,,0.00,,2013-02-05 14:21:00,
2013-02-05 09:32:00,44.0,35.0,29.99,West,270,4.0,8.0,70,0.00,,,0.00,,2013-02-05 14:32:00,
2013-02-05 09:42:00,44.0,35.0,29.99,West,270,4.0,8.0,70,0.00,,,0.00,,2013-02-05 14:42:00,
2013-02-05 09:52:00,45.0,35.0,29.99,SW,232,5.0,8.0,67,0.00,,,0.00,,2013-02-05 14:52:00,
2013-02-05 10:02:00,47.0,35.0,29.98,WSW,245,7.0,9.0,64,0.00,,,0.00,,2013-02-05 15:02:00,
2013-02-05 10:11:00,47.0,35.0,29.98,WSW,245,7.0,9.0,64,0.00,,,0.00,,2013-02-05 15:11:00,
2013-02-05 10:21:00,49.0,34.0,29.99,WSW,238,9.0,13.0,57,0.00,,,0.00,,2013-02-05 15:21:00,
2013-02-05 10:32:00,50.0,35.0,29.99,West,280,6.0,11.0,56,0.00,,,0.00,,2013-02-05 15:32:00,
2013-02-05 10:42:00,50.0,35.0,29.99,West,280,6.0,11.0,56,0.00,,,0.00,,2013-02-05 15:42:00,
2013-02-05 10:52:00,50.0,34.0,29.99,WSW,240,10.0,13.0,54,0.00,,,0.00,,2013-02-05 15:52:00,
2013-02-05 11:01:00,52.0,36.0,29.98,SW,235,8.0,12.0,54,0.00,,,0.00,,2013-02-05 16:01:00,
2013-02-05 11:12:00,52.0,36.0,29.98,SW,235,8.0,12.0,54,0.00,,,0.00,,2013-02-05 16:12:00,
2013-02-05 11:22:00,52.0,35.0,29.98,WSW,248,6.0,13.0,52,0.00,,,0.00,,2013-02-05 16:22:00,
2013-02-05 11:32:00,54.0,35.0,29.97,WNW,285,6.0,14.0,48,0.00,,,0.00,,2013-02-05 16:32:00,
2013-02-05 11:42:00,54.0,35.0,29.97,WNW,285,6.0,14.0,48,0.00,,,0.00,,2013-02-05 16:42:00,
2013-02-05 11:52:00,55.0,35.0,29.97,West,272,4.0,13.0,47,0.00,,,0.00,,2013-02-05 16:52:00,
2013-02-05 12:01:00,56.0,36.0,29.96,SSW,203,8.0,13.0,46,0.00,,,0.00,,2013-02-05 17:01:00,
2013-02-05 12:12:00,56.0,36.0,29.96,SSW,203,8.0,13.0,46,0.00,,,0.00,,2013-02-05 17:12:00,
2013-02-05 12:22:00,57.0,35.0,29.95,South,181,11.0,13.0,43,0.00,,,0.00,,2013-02-05 17:22:00,
2013-02-05 12:32:00,57.0,35.0,29.94,West,270,5.0,12.0,43,0.00,,,0.00,,2013-02-05 17:32:00,
2013-02-05 12:42:00,57.0,35.0,29.94,West,270,5.0,12.0,43,0.00,,,0.00,,2013-02-05 17:42:00,
2013-02-05 12:52:00,57.0,35.0,29.93,West,280,3.0,12.0,43,0.00,,,0.00,,2013-02-05 17:52:00,
2013-02-05 13:02:00,57.0,34.0,29.92,SSW,198,10.0,13.0,42,0.00,,,0.00,,2013-02-05 18:02:00,
2013-02-05 13:11:00,57.0,34.0,29.92,SSW,198,10.0,13.0,42,0.00,,,0.00,,2013-02-05 18:11:00,
2013-02-05 13:22:00,57.0,35.0,29.92,WSW,255,6.0,12.0,43,0.00,,,0.00,,2013-02-05 18:22:00,
2013-02-05 13:32:00,59.0,34.0,29.91,SSW,208,10.0,14.0,39,0.00,,,0.00,,2013-02-05 18:32:00,
2013-02-05 13:42:00,59.0,34.0,29.91,SSW,208,10.0,14.0,39,0.00,,,0.00,,2013-02-05 18:42:00,
2013-02-05 13:52:00,59.0,34.0,29.91,SSW,208,10.0,14.0,39,0.00,,,0.00,,2013-02-05 18:52:00,
2013-02-05 14:02:00,60.0,35.0,29.90,SSW,212,5.0,15.0,39,0.00,,,0.00,,2013-02-05 19:02:00,
2013-02-05 14:11:00,60.0,35.0,29.90,SSW,212,5.0,15.0,39,0.00,,,0.00,,2013-02-05 19:11:00,
2013-02-05 14:22:00,61.0,35.0,29.89,SW,226,8.0,13.0,38,0.00,,,0.00,,2013-02-05 19:22:00,
2013-02-05 14:32:00,62.0,36.0,29.89,SW,219,8.0,12.0,38,0.00,,,0.00,,2013-02-05 19:32:00,
2013-02-05 14:42:00,62.0,36.0,29.89,SW,219,8.0,12.0,38,0.00,,,0.00,,2013-02-05 19:42:00,
2013-02-05 14:52:00,61.0,36.0,29.88,WSW,248,3.0,11.0,39,0.00,,,0.00,,2013-02-05 19:52:00,
2013-02-05 15:02:00,63.0,38.0,29.88,WNW,297,4.0,13.0,39,0.00,,,0.00,,2013-02-05 20:02:00,
2013-02-05 15:11:00,63.0,38.0,29.88,WNW,297,4.0,13.0,39,0.00,,,0.00,,2013-02-05 20:11:00,
2013-02-05 15:21:00,63.0,37.0,29.88,WNW,300,7.0,14.0,38,0.00,,,0.00,,2013-02-05 20:21:00,
2013-02-05 15:32:00,62.0,37.0,29.87,SW,235,5.0,10.0,39,0.00,,,0.00,,2013-02-05 20:32:00,
2013-02-05 15:42:00,62.0,37.0,29.87,SW,235,5.0,10.0,39,0.00,,,0.00,,2013-02-05 20:42:00,
2013-02-05 15:52:00,62.0,38.0,29.87,West,276,3.0,12.0,41,0.00,,,0.00,,2013-02-05 20:52:00,
2013-02-05 16:02:00,63.0,39.0,29.86,WNW,284,6.0,11.0,41,0.00,,,0.00,,2013-02-05 21:02:00,
2013-02-05 16:11:00,63.0,39.0,29.86,WNW,284,6.0,11.0,41,0.00,,,0.00,,2013-02-05 21:11:00,
2013-02-05 16:22:00,63.0,39.0,29.88,West,280,6.0,12.0,41,0.00,,,0.00,,2013-02-05 21:22:00,
2013-02-05 16:32:00,62.0,39.0,29.88,NNW,338,6.0,10.0,42,0.00,,,0.00,,2013-02-05 21:32:00,
2013-02-05 16:42:00,62.0,39.0,29.88,NNW,338,6.0,10.0,42,0.00,,,0.00,,2013-02-05 21:42:00,
2013-02-05 16:52:00,62.0,39.0,29.88,WSW,246,4.0,10.0,43,0.00,,,0.00,,2013-02-05 21:52:00,
2013-02-05 17:01:00,62.0,40.0,29.88,WNW,297,3.0,9.0,44,0.00,,,0.00,,2013-02-05 22:01:00,
2013-02-05 17:11:00,62.0,40.0,29.88,WNW,297,3.0,9.0,44,0.00,,,0.00,,2013-02-05 22:11:00,
2013-02-05 17:22:00,61.0,40.0,29.88,NW,311,5.0,9.0,45,0.00,,,0.00,,2013-02-05 22:22:00,
2013-02-05 17:32:00,60.0,40.0,29.88,West,269,2.0,5.0,47,0.00,,,0.00,,2013-02-05 22:32:00,
2013-02-05 17:42:00,60.0,40.0,29.88,West,269,2.0,5.0,47,0.00,,,0.00,,2013-02-05 22:42:00,
2013-02-05 17:52:00,59.0,39.0,29.88,West,278,3.0,5.0,47,0.00,,,0.00,,2013-02-05 22:52:00,
2013-02-05 18:02:00,59.0,39.0,29.88,NW,304,2.0,6.0,48,0.00,,,0.00,,2013-02-05 23:02:00,
2013-02-05 18:11:00,59.0,39.0,29.88,NW,304,2.0,6.0,48,0.00,,,0.00,,2013-02-05 23:11:00,
2013-02-05 18:22:00,58.0,39.0,29.89,West,278,1.0,3.0,49,0.00,,,0.00,,2013-02-05 23:22:00,
2013-02-05 18:32:00,57.0,39.0,29.89,West,262,1.0,2.0,50,0.00,,,0.00,,2013-02-05 23:32:00,
2013-02-05 18:42:00,57.0,39.0,29.89,West,262,1.0,2.0,50,0.00,,,0.00,,2013-02-05 23:42:00,
2013-02-05 18:53:00,56.0,38.0,29.89,NW,304,1.0,3.0,50,0.00,,,0.00,,2013-02-05 23:53:00,
2013-02-05 19:02:00,55.0,38.0,29.90,NW,304,0.0,0.0,52,0.00,,,0.00,,2013-02-06 00:02:00,
2013-02-05 19:12:00,55.0,38.0,29.90,NW,304,0.0,0.0,52,0.00,,,0.00,,2013-02-06 00:12:00,
2013-02-05 19:22:00,53.0,37.0,29.91,NW,304,0.0,0.0,55,0.00,,,0.00,,2013-02-06 00:22:00,
2013-02-05 19:32:00,54.0,38.0,29.91,NW,304,0.0,1.0,54,0.00,,,0.00,,2013-02-06 00:32:00,
2013-02-05 19:42:00,54.0,38.0,29.91,NW,304,0.0,1.0,54,0.00,,,0.00,,2013-02-06 00:42:00,
2013-02-05 19:52:00,54.0,37.0,29.91,NW,304,0.0,0.0,53,0.00,,,0.00,,2013-02-06 00:52:00,
2013-02-05 20:02:00,54.0,38.0,29.92,NW,304,0.0,1.0,54,0.00,,,0.00,,2013-02-06 01:02:00,
2013-02-05 20:12:00,54.0,38.0,29.92,NW,304,0.0,1.0,54,0.00,,,0.00,,2013-02-06 01:12:00,
2013-02-05 20:22:00,52.0,37.0,29.92,NW,304,0.0,0.0,57,0.00,,,0.00,,2013-02-06 01:22:00,
2013-02-05 20:32:00,50.0,37.0,29.92,NW,304,0.0,0.0,60,0.00,,,0.00,,2013-02-06 01:32:00,
2013-02-05 20:42:00,50.0,37.0,29.92,NW,304,0.0,0.0,60,0.00,,,0.00,,2013-02-06 01:42:00,
2013-02-05 20:53:00,48.0,36.0,29.93,NW,304,0.0,0.0,64,0.00,,,0.00,,2013-02-06 01:53:00,
2013-02-05 21:02:00,47.0,36.0,29.93,NW,304,0.0,0.0,66,0.00,,,0.00,,2013-02-06 02:02:00,
2013-02-05 21:12:00,47.0,36.0,29.93,NW,304,0.0,0.0,66,0.00,,,0.00,,2013-02-06 02:12:00,
2013-02-05 21:22:00,49.0,37.0,29.93,NW,304,0.0,0.0,64,0.00,,,0.00,,2013-02-06 02:22:00,
2013-02-05 21:32:00,48.0,37.0,29.94,NW,304,0.0,0.0,65,0.00,,,0.00,,2013-02-06 02:32:00,
2013-02-05 21:42:00,48.0,37.0,29.94,NW,304,0.0,0.0,65,0.00,,,0.00,,2013-02-06 02:42:00,
2013-02-05 21:53:00,47.0,37.0,29.95,NNW,340,0.0,4.0,67,0.00,,,0.00,,2013-02-06 02:53:00,
2013-02-05 22:03:00,49.0,37.0,29.96,NW,322,1.0,2.0,62,0.00,,,0.00,,2013-02-06 03:03:00,
2013-02-05 22:12:00,49.0,37.0,29.96,NW,322,1.0,2.0,62,0.00,,,0.00,,2013-02-06 03:12:00,
2013-02-05 22:22:00,49.0,36.0,29.96,NW,319,0.0,1.0,61,0.00,,,0.00,,2013-02-06 03:22:00,
2013-02-05 22:32:00,49.0,36.0,29.96,NW,319,0.0,2.0,60,0.00,,,0.00,,2013-02-06 03:32:00,
2013-02-05 22:42:00,49.0,36.0,29.96,NW,319,0.0,2.0,60,0.00,,,0.00,,2013-02-06 03:42:00,
2013-02-05 22:53:00,48.0,36.0,29.96,NW,319,0.0,1.0,62,0.00,,,0.00,,2013-02-06 03:53:00,
2013-02-05 23:02:00,46.0,35.0,29.97,NW,319,0.0,0.0,65,0.00,,,0.00,,2013-02-06 04:02:00,
2013-02-05 23:11:00,46.0,35.0,29.97,NW,319,0.0,0.0,65,0.00,,,0.00,,2013-02-06 04:11:00,
2013-02-05 23:22:00,45.0,35.0,29.96,NW,319,0.0,0.0,67,0.00,,,0.00,,2013-02-06 04:22:00,
2013-02-05 23:32:00,47.0,35.0,29.96,NW,319,0.0,1.0,64,0.00,,,0.00,,2013-02-06 04:32:00,
2013-02-05 23:42:00,47.0,35.0,29.96,NW,319,0.0,1.0,64,0.00,,,0.00,,2013-02-06 04:42:00,
2013-02-05 23:52:00,45.0,35.0,29.96,NW,319,0.0,1.0,68,0.00,,,0.00,,2013-02-06 04:52:00,